User: anonymous   Login
Location: Unspecified
(0.0000°N, 0.0000°E)
Time: 00:05:40
(UTC+00:00)
Language:

AO-73 - Orbit

View from above orbital plane
View from above orbital plane
View from above satellite
View from above satellite

Ground track
Ground track

The orbit data is extracted from the following two-line orbital elements,

1 39444U 13066AE  17172.66521000 +.00000259 +00000-0 +38768-4 0  9990
2 39444 097.6306 215.7508 0056998 251.5646 107.9366 14.81444446192274
Epoch (UTC): 21 June 2017 15:57:54
Eccentricity: 0.0056998
inclination: 97.6306°
perigee height: 585 km
apogee height: 664 km
right ascension of ascending node: 215.7508°
argument of perigee: 251.5646°
revolutions per day: 14.81444446
mean anomaly at epoch: 107.9366°
orbit number at epoch: 19227

The dashed part of the orbit path shows where the satellite is in the earth's shadow,  

DLR